Wind_Speed
12 12 11 9 8 11 14 14 11 10 10 10 9 10 8 10 8 10 10 10 12 11 10 10 10 10 11 11 11 12 13 12 10 6 4 2 1 1 2 2 4 4 5 6 7 8 8 9 10
12 11 10 9 3 12 11 10 9 7 6 9 9 9 7 9 8 8 8 7 8 9 9 10 10 9 9 9 9 10 10 11 11 11 10 9 8 5 5 4 5 6 6 7 7 8 9 10 11
11 11 10 9 7 11 11 7 8 8 7 4 6 7 8 8 7 6 7 6 5 6 6 6 7 8 8 9 9 9 9 9 9 9 8 7 6 6 6 6 5 5 6 7 8 9 10 11 13
9 10 11 11 9 10 9 6 7 8 8 4 3 3 3 5 7 8 7 7 5 5 4 3 4 4 5 6 6 7 8 8 8 8 7 6 5 3 4 5 6 6 6 7 7 9 9 10 11
7 6 8 8 10 7 5 4 5 7 9 6 2 3 2 2 3 5 5 5 5 6 6 5 4 3 3 3 4 4 5 5 5 5 5 4 4 4 4 4 3 4 6 7 8 10 11 12 13
4 5 6 7 9 9 4 3 4 5 7 6 2 2 3 3 2 3 3 4 3 4 3 4 5 5 5 6 6 6 5 4 4 4 3 3 3 3 4 4 4 5 7 9 10 11 12 13 14
1 2 4 5 6 7 7 6 4 4 5 5 4 3 1 1 3 3 3 3 3 2 2 1 1 1 1 2 4 4 3 2 3 3 3 3 2 1 1 3 4 5 6 8 10 12 14 15 16
3 4 7 8 7 7 8 9 7 6 6 5 4 7 6 5 5 3 1 0 2 2 2 2 3 5 5 5 4 3 2 2 3 3 3 2 1 3 4 5 7 9 10 12 12 14 16 17 18
7 7 8 11 9 6 10 10 10 9 9 8 7 8 8 7 8 6 6 5 4 5 5 5 5 4 4 4 4 3 3 3 3 2 2 2 2 2 2 5 5 7 8 9 12 13 14 17 19
10 10 10 12 12 8 12 11 11 10 10 10 11 9 9 9 9 8 8 7 7 8 8 8 8 8 7 7 6 6 5 4 5 5 5 1 2 1 2 3 4 4 6 8 9 13 15 16 17
14 13 12 13 14 10 13 11 13 11 10 11 14 11 11 11 11 10 10 10 8 8 8 8 8 10 10 11 11 8 8 7 5 3 2 3 3 4 3 5 7 10 11 12 13 14 14 18 20
17 16 16 16 15 13 13 13 15 12 12 14 15 15 14 13 12 11 10 10 10 11 11 11 12 11 11 12 12 11 9 9 8 8 7 6 6 7 7 7 10 12 14 16 16 19 20 22 22
19 19 19 16 16 16 15 14 15 14 18 17 15 16 17 15 13 12 12 11 12 14 14 16 15 16 15 15 14 14 13 13 11 11 10 9 10 11 12 12 13 15 16 19 20 22 23 24 27
20 20 19 19 19 19 19 17 15 19 20 20 16 17 17 16 15 14 14 13 14 14 16 17 19 20 19 18 17 16 15 14 12 12 13 14 15 17 19 19 21 24 23 25 26 28 31 33 33
22 22 22 22 23 21 22 19 18 21 20 23 19 18 17 16 17 17 17 16 17 17 18 20 20 20 21 20 17 17 17 16 18 19 18 18 19 21 23 24 25 27 28 30 33 35 37 38 39
22 22 24 24 25 24 24 18 22 22 23 23 21 20 18 17 18 19 19 19 21 20 20 20 19 19 21 20 20 20 19 20 22 23 21 21 22 24 26 28 31 30 31 34 37 39 40 41 42
24 27 27 27 28 28 28 25 25 26 25 25 22 20 20 20 22 22 23 22 23 23 23 22 22 21 21 22 22 22 23 24 23 24 22 25 27 29 32 33 32 32 33 34 36 38 39 40 42
32 30 30 30 31 31 30 28 29 27 26 27 23 23 23 24 24 25 25 26 26 26 26 26 26 26 23 24 26 28 28 27 27 27 27 30 31 32 31 33 34 35 35 37 40 42 45 47 51
34 35 34 32 34 36 35 30 30 32 28 26 26 27 26 26 25 28 28 26 28 29 29 29 30 29 28 27 28 30 30 30 30 29 30 32 32 35 38 39 38 39 40 42 45 47 50 54 57
35 38 35 36 39 42 38 36 33 34 30 29 29 29 30 29 29 32 31 30 30 30 30 31 31 32 31 31 31 29 30 32 34 34 33 33 35 37 41 40 41 42 43 46 50 53 56 59 60
36 40 39 43 44 48 45 41 36 32 32 30 30 32 32 31 33 34 35 33 33 32 33 33 32 34 36 36 35 33 33 34 35 34 37 39 41 42 44 43 43 45 47 48 51 54 56 61 66
43 41 42 42 45 47 44 46 34 28 30 32 30 34 36 34 34 37 37 36 35 34 35 35 36 36 36 36 36 36 36 36 34 37 41 43 45 47 48 48 48 50 50 51 55 59 61 64 69
42 40 40 41 44 47 44 46 32 28 28 29 33 35 39 36 35 37 39 36 35 35 35 35 36 37 37 36 36 36 36 35 38 40 43 47 49 50 52 52 53 52 53 53 57 61 65 68 71
41 40 40 43 45 49 38 41 47 27 29 29 31 33 37 36 34 36 37 36 37 36 37 36 37 38 38 38 38 37 36 40 41 44 46 49 49 51 53 53 55 54 55 57 61 65 68 69 72
43 41 43 46 49 49 42 43 44 37 31 32 31 33 36 35 31 32 33 35 37 37 37 37 37 36 35 36 37 39 41 42 44 47 49 50 52 53 55 56 56 56 59 63 66 69 71 73 75
43 46 46 50 49 50 50 49 42 43 40 35 36 36 34 35 34 33 35 38 39 38 38 38 37 35 34 36 39 41 43 45 48 51 54 54 56 59 60 60 59 60 64 68 70 72 74 77 80
42 47 39 46 52 53 50 46 43 43 42 37 33 34 33 31 33 37 37 37 37 37 37 36 35 35 38 41 42 44 46 49 52 55 58 59 60 63 65 64 63 64 68 71 73 75 78 81 83
47 40 39 44 48 51 52 49 49 48 45 41 39 35 30 29 32 35 37 37 37 36 35 35 38 41 41 42 45 47 52 52 54 57 59 61 63 65 67 67 67 69 72 75 77 79 82 84 85
45 46 43 42 48 50 51 51 50 48 46 44 36 29 27 28 30 33 34 36 38 39 40 42 44 44 44 46 50 52 53 55 58 59 61 61 63 69 70 70 70 73 75 77 80 83 85 85 87
47 49 50 50 47 47 54 48 46 43 43 42 40 36 31 28 30 30 33 36 36 38 40 43 44 44 46 49 53 55 56 58 59 61 61 63 68 71 71 71 74 76 77 80 83 85 85 86 87
Wind_Direction
70 65 73 91 102 83 75 78 78 76 72 73 82 84 88 92 89 93 88 93 98 99 99 97 99 97 97 94 93 94 95 97 106 124 135 160 139 276 322 323 296 291 291 289 288 291 291 287 289
75 66 62 53 21 77 80 71 68 59 59 74 75 95 95 94 98 101 100 99 99 98 100 101 101 102 100 100 96 90 88 87 86 80 74 71 66 58 50 27 0 345 337 331 321 314 308 307 307
80 64 46 57 68 71 74 60 47 36 34 50 81 68 83 89 94 91 96 98 102 109 109 104 100 100 100 101 100 98 94 93 90 89 86 78 67 48 52 44 39 19 1 349 344 332 330 326 321
80 66 53 45 48 58 70 42 29 32 26 46 85 87 80 88 89 88 82 81 75 77 89 96 106 110 110 107 98 95 91 92 95 91 87 83 75 57 46 29 6 356 353 342 336 334 333 328 325
88 63 54 43 43 48 49 33 22 15 28 49 57 109 123 111 109 99 94 93 83 81 76 75 63 53 55 63 76 80 83 85 80 82 76 76 71 57 36 42 17 348 330 330 329 323 319 315 314
80 61 41 7 33 34 15 351 360 1 5 31 24 96 119 110 115 124 131 125 113 102 97 96 93 91 83 72 68 66 67 70 74 78 76 63 44 17 359 344 334 324 321 324 321 319 317 315 316
133 24 -0 11 11 19 358 327 300 328 327 356 338 325 343 77 133 134 133 109 98 82 103 136 159 163 146 147 143 136 126 109 93 83 80 73 73 26 318 317 334 329 330 323 318 315 313 313 311
264 314 332 338 344 356 338 324 294 272 295 295 307 304 308 312 319 328 353 350 322 310 282 246 221 215 215 225 227 221 210 201 177 168 177 194 241 290 319 331 335 333 334 332 327 324 323 323 322
261 284 311 318 324 325 318 313 297 270 270 286 279 287 293 293 297 300 290 278 286 294 298 292 276 262 246 240 227 218 206 213 235 228 229 228 228 266 331 355 357 351 350 348 344 345 336 335 335
263 277 295 308 302 306 305 307 288 267 269 289 280 263 272 288 286 278 274 274 286 285 291 288 287 283 278 270 261 252 244 229 238 251 251 235 86 87 2 35 26 4 350 352 335 335 336 336 332
267 279 290 294 292 299 299 307 278 275 270 279 274 274 268 264 275 276 278 282 272 267 274 273 278 276 278 280 279 277 274 268 271 272 345 348 356 11 11 339 342 343 342 344 339 336 333 329 329
270 277 281 285 288 297 294 291 278 282 265 264 280 281 271 270 271 271 266 267 263 267 273 276 282 280 272 262 259 257 255 266 262 267 271 285 296 297 299 307 313 315 314 314 319 317 315 312 310
270 273 279 277 279 288 294 287 279 282 270 266 270 273 274 273 272 264 260 255 254 263 272 277 277 273 269 266 263 261 258 254 252 266 280 293 297 294 291 290 293 298 300 300 304 304 302 305 308
273 275 277 279 279 282 288 289 278 270 269 275 271 270 271 273 269 259 258 258 261 267 274 279 279 273 268 268 269 270 265 271 280 278 276 278 288 292 296 299 300 300 300 304 303 307 304 303 303
276 278 278 278 280 280 279 287 276 272 273 270 273 267 266 266 268 265 263 262 265 270 277 281 277 277 278 282 284 280 288 283 280 280 283 290 300 306 305 303 304 303 301 301 306 307 305 306 306
280 281 280 278 280 279 281 281 280 273 270 269 267 266 263 263 266 268 270 267 266 267 272 271 271 273 273 276 277 279 278 276 280 285 286 288 293 297 293 303 302 304 309 311 313 311 308 306 307
278 277 279 280 283 283 282 280 272 270 268 266 262 261 261 263 266 266 266 266 266 268 268 270 269 270 272 274 276 280 278 278 278 275 280 287 290 296 294 292 299 302 304 306 305 305 305 305 308
272 279 285 285 280 276 276 277 274 271 263 263 262 256 258 260 265 271 272 269 265 265 266 266 264 267 269 276 278 277 277 274 273 273 281 288 289 289 287 288 293 298 300 300 303 307 310 312 313
278 281 282 280 277 280 278 272 273 273 267 263 258 253 257 264 266 270 273 273 269 267 266 263 264 264 265 265 267 272 269 271 273 278 282 285 288 288 291 293 292 295 299 302 307 310 311 311 310
277 280 283 277 280 277 277 274 268 271 271 264 262 260 261 265 268 269 273 273 268 268 271 271 267 266 266 267 265 263 264 262 273 277 278 282 288 292 293 294 296 302 305 307 309 311 312 311 311
277 278 276 276 275 276 277 269 271 269 270 263 262 262 261 263 265 270 270 271 267 266 268 271 271 271 270 272 272 267 260 264 274 277 282 287 292 296 300 298 299 301 303 306 307 308 309 309 310
280 276 273 273 273 273 269 270 264 263 264 268 270 270 266 261 263 266 271 273 267 265 267 270 272 274 275 273 270 266 265 274 280 288 289 290 292 295 298 300 301 302 303 305 307 307 308 310 309
277 274 274 271 270 270 269 272 266 253 261 269 267 264 265 267 268 270 270 270 267 266 268 270 272 275 275 272 268 265 273 281 286 288 290 294 294 296 299 300 301 302 302 303 305 307 307 308 307
271 271 270 270 270 268 270 271 272 269 271 270 270 267 266 269 270 268 270 268 267 267 269 271 273 275 273 269 267 273 279 284 288 292 293 294 296 298 299 300 301 300 301 303 304 305 306 307 308
266 268 269 267 266 271 272 265 274 279 274 273 273 273 273 272 272 268 264 264 267 269 271 272 273 273 271 269 271 276 280 285 287 291 294 293 295 299 299 299 299 299 301 304 305 306 306 308 309
259 256 257 265 270 272 271 272 277 280 278 277 276 274 275 272 269 265 264 265 268 268 269 271 271 270 269 269 273 277 282 285 288 290 292 293 297 300 301 301 299 299 301 303 303 305 308 310 312
256 256 261 262 264 269 274 275 273 274 285 285 289 271 270 269 264 262 264 266 266 265 266 268 268 266 268 272 274 279 282 286 288 291 292 294 297 301 302 300 297 298 300 302 305 307 309 310 310
255 262 258 259 266 269 272 276 277 282 281 281 286 288 274 269 260 259 257 258 261 265 266 267 267 268 270 273 276 279 284 288 292 293 293 294 296 300 300 297 296 298 302 304 306 308 309 309 308
258 261 261 261 263 269 277 274 275 280 287 289 286 286 275 265 260 257 254 256 260 262 263 263 266 268 271 276 278 281 287 290 292 291 291 295 299 298 297 296 296 299 302 304 306 308 308 307 305
253 253 253 258 270 272 271 273 281 288 291 290 286 285 279 262 258 258 255 255 258 259 261 262 264 267 272 276 280 284 287 289 292 293 295 298 296 294 295 297 298 300 303 304 307 307 306 304 303
Height
5886 5885 5884 5884 5887 5884 5883 5883 5883 5883 5883 5882 5882 5882 5882 5882 5882 5884 5882 5881 5881 5881 5881 5882 5883 5884 5884 5885 5886 5886 5887 5887 5888 5888 5889 5890 5890 5891 5892 5893 5893 5894 5894 5894 5895 5895 5895 5895 5895
5886 5885 5885 5885 5886 5882 5884 5884 5884 5884 5884 5884 5883 5883 5883 5882 5882 5882 5883 5883 5883 5883 5883 5883 5884 5884 5885 5886 5886 5887 5887 5888 5888 5888 5889 5890 5890 5890 5892 5892 5892 5892 5893 5893 5893 5893 5893 5893 5892
5887 5886 5886 5885 5886 5883 5884 5884 5885 5885 5884 5884 5885 5884 5884 5883 5883 5883 5883 5883 5883 5884 5884 5884 5884 5885 5885 5886 5886 5886 5887 5888 5888 5889 5889 5890 5890 5890 5891 5891 5891 5891 5891 5891 5891 5892 5891 5891 5890
5887 5888 5887 5886 5886 5885 5885 5886 5886 5886 5885 5885 5885 5885 5885 5884 5884 5884 5884 5885 5885 5885 5885 5885 5885 5885 5885 5886 5886 5886 5887 5887 5888 5888 5889 5890 5890 5890 5889 5889 5889 5889 5889 5889 5890 5889 5889 5889 5889
5887 5888 5888 5887 5886 5885 5886 5886 5886 5886 5886 5886 5885 5885 5885 5885 5885 5885 5885 5885 5885 5886 5886 5886 5886 5886 5886 5886 5886 5886 5886 5887 5887 5888 5888 5888 5888 5888 5887 5888 5888 5888 5888 5888 5887 5887 5887 5887 5886
5887 5888 5888 5888 5886 5886 5886 5886 5887 5886 5886 5886 5886 5885 5885 5884 5885 5884 5885 5885 5886 5886 5886 5886 5886 5886 5886 5886 5886 5886 5886 5886 5886 5886 5886 5886 5886 5887 5886 5887 5888 5888 5887 5887 5886 5886 5885 5884 5883
5887 5887 5887 5888 5887 5887 5886 5885 5886 5886 5886 5886 5885 5885 5885 5885 5885 5884 5885 5885 5886 5886 5886 5887 5886 5886 5886 5886 5886 5885 5886 5886 5886 5886 5885 5885 5886 5885 5885 5885 5885 5885 5884 5884 5884 5883 5882 5881 5881
5886 5886 5886 5886 5886 5886 5885 5885 5885 5885 5885 5885 5885 5884 5885 5885 5884 5884 5885 5885 5885 5884 5885 5885 5885 5885 5885 5885 5885 5885 5885 5884 5883 5883 5883 5884 5884 5883 5883 5882 5882 5882 5882 5882 5881 5880 5879 5878 5877
5885 5886 5885 5885 5885 5886 5884 5883 5883 5884 5884 5884 5885 5884 5883 5884 5883 5883 5883 5883 5884 5884 5884 5884 5883 5883 5883 5883 5882 5882 5882 5882 5882 5882 5881 5881 5881 5880 5881 5881 5881 5881 5880 5880 5879 5878 5877 5876 5875
5883 5884 5884 5884 5882 5883 5882 5882 5881 5881 5881 5882 5882 5883 5882 5882 5882 5882 5882 5882 5882 5882 5882 5882 5882 5882 5882 5882 5881 5880 5880 5880 5879 5879 5879 5879 5879 5879 5878 5878 5878 5877 5877 5876 5875 5874 5872 5872 5871
5880 5881 5881 5881 5880 5881 5880 5880 5878 5879 5880 5879 5878 5880 5880 5880 5880 5880 5880 5880 5880 5879 5879 5879 5879 5879 5879 5880 5879 5879 5879 5878 5878 5878 5877 5878 5878 5878 5877 5877 5876 5876 5875 5874 5872 5871 5869 5868 5866
5877 5878 5878 5878 5877 5878 5877 5877 5876 5877 5878 5877 5875 5877 5877 5878 5878 5877 5877 5877 5877 5877 5877 5877 5877 5877 5877 5876 5876 5876 5876 5875 5875 5875 5874 5874 5873 5873 5873 5873 5872 5871 5870 5868 5867 5865 5864 5862 5861
5873 5874 5874 5875 5874 5874 5874 5874 5873 5873 5872 5873 5874 5874 5874 5874 5875 5874 5874 5875 5875 5874 5874 5874 5874 5874 5874 5873 5874 5873 5873 5872 5872 5871 5871 5871 5871 5871 5870 5869 5868 5867 5866 5864 5862 5860 5858 5856 5854
5868 5869 5870 5870 5871 5871 5870 5870 5871 5869 5868 5868 5870 5870 5870 5871 5871 5871 5871 5872 5872 5872 5872 5872 5872 5871 5871 5871 5871 5871 5871 5871 5871 5871 5870 5869 5868 5867 5866 5865 5864 5862 5861 5860 5858 5857 5855 5852 5850
5863 5864 5865 5865 5865 5866 5866 5867 5866 5865 5865 5863 5865 5866 5866 5867 5866 5867 5868 5868 5868 5868 5868 5868 5869 5869 5869 5869 5869 5869 5868 5867 5867 5866 5865 5865 5864 5863 5862 5861 5859 5858 5856 5854 5852 5849 5846 5843 5841
5858 5859 5859 5859 5859 5860 5860 5863 5861 5861 5860 5859 5860 5861 5861 5862 5862 5862 5863 5864 5864 5864 5864 5864 5865 5865 5864 5864 5865 5865 5865 5865 5864 5864 5862 5861 5859 5858 5857 5856 5854 5852 5849 5847 5845 5842 5839 5836 5833
5854 5852 5853 5854 5854 5854 5854 5856 5856 5855 5855 5855 5856 5857 5857 5857 5856 5857 5858 5859 5859 5859 5859 5859 5859 5859 5860 5860 5860 5860 5860 5860 5859 5857 5856 5856 5854 5853 5851 5849 5847 5844 5841 5840 5836 5834 5830 5826 5822
5846 5848 5848 5847 5847 5847 5847 5849 5848 5848 5849 5849 5852 5852 5852 5852 5852 5852 5852 5852 5852 5852 5852 5853 5853 5853 5854 5854 5854 5854 5854 5853 5852 5851 5850 5849 5847 5845 5843 5842 5839 5837 5834 5830 5827 5823 5818 5813 5811
5840 5841 5842 5841 5838 5837 5838 5841 5841 5840 5842 5845 5845 5846 5846 5846 5847 5846 5846 5846 5846 5846 5846 5846 5847 5847 5847 5847 5847 5847 5846 5846 5845 5844 5843 5841 5839 5838 5836 5833 5830 5827 5824 5821 5817 5813 5808 5803 5800
5834 5833 5834 5833 5830 5829 5831 5831 5833 5833 5835 5837 5837 5839 5840 5840 5840 5838 5838 5839 5839 5840 5840 5840 5840 5840 5840 5840 5839 5839 5838 5837 5837 5836 5835 5833 5831 5829 5827 5824 5822 5818 5815 5811 5807 5803 5797 5792 5786
5827 5825 5826 5824 5822 5818 5820 5818 5823 5827 5827 5829 5830 5831 5832 5834 5832 5831 5831 5831 5832 5832 5832 5832 5833 5833 5832 5832 5831 5831 5830 5830 5829 5828 5826 5824 5823 5820 5817 5814 5810 5807 5803 5798 5795 5790 5785 5781 5775
5816 5816 5815 5815 5811 5809 5811 5803 5815 5821 5820 5820 5823 5822 5822 5825 5825 5823 5823 5823 5824 5824 5825 5825 5825 5825 5825 5824 5824 5823 5823 5823 5822 5820 5818 5815 5812 5809 5806 5803 5798 5794 5790 5785 5780 5777 5772 5765 5760
5807 5807 5806 5804 5802 5799 5800 5797 5805 5812 5814 5815 5814 5814 5811 5813 5815 5814 5813 5814 5815 5816 5816 5816 5816 5816 5816 5816 5815 5815 5814 5814 5812 5809 5807 5804 5801 5798 5795 5790 5786 5781 5777 5771 5766 5762 5756 5751 5745
5798 5797 5796 5794 5792 5786 5797 5794 5783 5805 5805 5806 5805 5804 5803 5804 5805 5805 5804 5805 5805 5806 5807 5807 5807 5806 5806 5806 5806 5806 5805 5803 5801 5798 5796 5793 5790 5786 5782 5778 5773 5768 5762 5756 5751 5746 5740 5734 5727
5788 5789 5785 5783 5779 5778 5786 5784 5781 5789 5796 5795 5796 5795 5793 5794 5795 5795 5795 5795 5795 5796 5796 5797 5796 5796 5796 5796 5797 5796 5794 5791 5789 5787 5784 5781 5778 5774 5769 5764 5758 5753 5747 5741 5736 5730 5723 5715 5708
5777 5775 5775 5770 5773 5772 5772 5771 5778 5778 5782 5786 5786 5785 5784 5784 5784 5785 5785 5785 5785 5786 5786 5786 5786 5786 5786 5786 5785 5784 5782 5780 5778 5775 5772 5768 5764 5760 5754 5749 5743 5738 5732 5726 5719 5712 5705 5697 5688
5764 5763 5771 5764 5762 5760 5762 5764 5765 5767 5771 5773 5774 5774 5775 5775 5774 5773 5774 5775 5775 5775 5776 5776 5776 5776 5776 5775 5774 5772 5770 5768 5766 5763 5760 5755 5750 5745 5740 5734 5729 5723 5716 5709 5702 5694 5685 5676 5668
5752 5757 5756 5755 5754 5751 5750 5752 5752 5755 5757 5761 5763 5762 5763 5764 5765 5765 5765 5764 5765 5765 5766 5767 5766 5765 5764 5764 5762 5760 5757 5755 5753 5750 5745 5740 5735 5730 5724 5718 5713 5707 5699 5692 5683 5674 5665 5656 5647
5744 5743 5745 5747 5744 5744 5741 5740 5742 5745 5748 5747 5749 5752 5752 5752 5752 5753 5754 5754 5755 5755 5756 5755 5754 5753 5753 5751 5749 5746 5745 5742 5739 5735 5729 5724 5718 5714 5708 5702 5695 5688 5680 5672 5664 5655 5646 5636 5627
5729 5730 5732 5733 5737 5737 5731 5724 5733 5738 5738 5737 5737 5738 5740 5742 5741 5742 5743 5743 5744 5744 5744 5743 5742 5742 5740 5738 5736 5733 5731 5727 5723 5719 5713 5707 5702 5696 5690 5685 5677 5669 5662 5654 5645 5636 5626 5616 5606